Lapse_Rate
7.2 6.5 6.5 6.5 6.5 6.5 6.5 6.5 6.5 6.5 6.5 6.5 6.5 6.5 6.5 6.9 7.1 6.9 7.1 7.3 5.6 3.6 2.2 3.5 3.0 5.5 2.5 8.2 8.7 8.7 8.5 7.6 8.4 8.5 8.1 8.2 7.7 5.5 6.4 6.1 4.8 3.9 5.0 4.3
6.5 6.5 6.5 6.5 6.5 6.5 6.5 6.5 6.5 6.5 6.5 6.5 6.5 6.5 6.5 6.5 6.7 7.0 7.1 7.3 7.4 7.5 5.7 6.3 8.5 8.9 8.4 8.4 8.5 8.3 8.3 7.4 8.2 8.4 7.8 7.9 8.0 6.2 5.7 6.3 6.8 6.6 8.0 8.6
6.5 6.5 6.5 6.5 6.5 6.5 6.5 6.5 6.5 6.5 6.5 6.5 6.5 6.5 6.5 6.5 6.9 7.1 7.4 7.6 7.8 7.7 7.7 8.1 8.3 8.6 3.6 2.9 8.0 7.5 8.4 7.3 7.6 7.5 8.2 7.7 7.5 7.5 5.9 7.4 6.9 8.1 8.7 8.7
6.5 6.4 6.5 6.5 6.5 6.5 6.5 6.5 6.5 6.5 6.5 6.5 6.5 6.5 6.5 6.5 6.5 6.5 7.0 7.3 7.5 7.8 8.0 8.2 8.3 8.5 8.6 8.4 8.7 7.4 8.2 8.4 8.4 7.9 7.7 7.2 6.2 6.5 6.9 5.7 3.0 6.9 7.0 7.6
6.5 6.5 6.5 6.5 6.5 6.5 6.5 6.5 6.5 6.5 6.5 6.5 6.5 6.5 6.5 6.5 6.5 6.5 6.8 7.2 7.6 7.9 8.0 8.1 8.3 8.6 8.8 8.7 8.5 8.3 8.4 8.7 8.4 8.7 7.4 6.1 7.3 6.9 6.7 8.2 7.2 6.7 3.4 7.6
6.5 6.9 6.5 6.5 6.5 6.5 6.5 6.5 6.6 6.5 6.5 6.5 6.5 6.5 6.5 6.5 6.5 6.5 6.8 7.2 7.5 7.8 8.1 8.2 8.4 8.7 8.7 8.9 8.4 8.4 8.3 8.5 8.3 8.8 8.1 7.2 7.7 7.7 7.5 6.8 5.8 6.6 7.1 5.7
6.5 6.5 6.5 6.7 6.5 6.5 6.5 6.5 6.5 6.5 6.6 6.5 6.5 6.5 6.5 6.5 6.5 6.5 6.6 7.1 7.5 7.9 8.0 8.1 8.2 8.4 8.5 8.4 8.7 8.4 8.0 8.3 8.7 8.8 8.7 8.8 8.2 7.8 7.9 7.2 7.2 6.1 5.2 5.4
6.5 6.5 6.5 6.5 6.5 6.5 6.5 6.5 6.5 6.5 6.5 6.5 6.5 6.5 6.5 6.5 6.9 7.1 7.4 7.5 7.6 7.8 8.1 8.1 8.3 8.4 8.4 7.1 7.0 8.2 8.0 8.4 8.0 8.0 8.0 7.6 6.8 6.5 5.6 6.5 5.9 6.3 5.9 6.2
6.5 6.5 6.5 6.5 6.5 6.5 6.5 6.5 6.5 6.5 6.5 6.5 6.5 6.5 6.5 6.5 6.5 6.8 7.1 7.3 7.4 7.7 7.9 7.9 8.2 7.9 6.9 8.3 7.1 6.5 6.4 6.5 6.6 6.8 6.8 7.1 7.0 7.1 7.2 7.1 7.2 7.0 6.4 7.2
6.5 6.5 6.5 6.5 6.7 6.6 6.5 6.5 6.5 6.5 6.5 6.5 6.5 6.5 6.5 6.5 6.5 6.5 6.6 7.0 7.4 7.8 7.9 7.9 8.3 8.5 8.5 8.8 8.9 8.8 7.8 7.7 8.0 8.2 7.4 8.1 8.9 8.6 8.3 8.2 7.1 6.6 6.3 6.1
6.5 6.5 6.5 6.5 6.5 6.5 6.5 6.5 6.5 6.5 6.5 6.5 6.5 6.5 6.5 6.5 6.5 6.5 6.7 7.2 7.5 7.7 7.8 8.0 8.1 8.4 8.6 8.9 8.9 8.9 9.0 8.9 9.0 8.5 8.1 7.6 8.0 8.3 8.8 7.9 7.9 7.7 6.7 5.8
6.6 6.5 6.5 6.5 6.5 6.5 6.5 6.6 6.5 6.5 6.5 6.5 6.5 6.5 6.5 6.5 6.5 6.9 7.0 7.3 7.6 7.7 8.0 8.2 8.3 8.5 8.4 8.2 8.5 8.8 8.8 8.8 7.8 7.8 8.2 9.0 9.1 9.1 8.6 8.6 8.5 7.9 7.1 6.8
6.5 6.5 6.5 6.5 6.5 6.5 6.5 6.5 6.5 6.5 6.5 6.5 6.5 6.5 6.5 6.2 6.6 7.0 7.0 7.3 7.5 7.8 7.9 8.1 8.3 7.9 8.1 8.1 8.2 8.7 8.5 7.2 8.8 8.8 8.9 8.3 9.0 8.9 8.8 8.6 8.2 8.0 7.7 7.5
5.9 6.5 6.5 6.5 6.5 6.5 6.5 6.5 6.5 6.5 6.5 6.5 6.5 6.5 6.5 6.5 6.5 6.7 7.1 7.5 7.6 7.7 7.7 8.0 8.1 8.1 7.4 7.6 7.3 7.0 6.8 6.9 6.5 7.1 8.9 8.4 8.2 7.9 8.0 8.6 8.3 8.2 8.2 8.5
6.5 6.5 6.5 6.5 6.5 6.5 6.5 6.5 6.5 6.5 6.5 6.5 6.5 6.5 6.5 6.5 6.5 6.8 7.3 7.5 7.5 7.6 7.8 7.8 8.0 7.7 7.6 7.5 7.3 7.5 6.6 6.1 6.8 6.7 8.5 7.6 6.6 7.2 8.1 6.7 5.7 5.8 7.1 8.0
6.5 6.5 6.5 6.5 6.5 6.5 6.5 6.5 6.5 6.5 6.5 6.5 6.5 6.5 6.5 6.9 7.1 6.9 7.1 7.3 7.4 7.5 7.8 7.7 7.6 7.8 8.0 8.0 7.5 7.8 7.7 6.7 6.3 5.9 7.1 7.3 7.7 7.9 7.6 5.8 5.2 5.4 5.7 7.4
6.5 6.5 6.5 6.5 6.5 6.5 6.5 6.5 6.5 6.5 6.5 6.5 6.5 6.5 6.5 6.5 6.6 6.8 7.1 7.3 7.4 7.6 7.7 7.6 7.7 7.9 8.1 8.2 8.4 8.2 8.3 7.0 6.0 5.6 7.0 7.4 7.3 8.0 6.4 7.7 5.7 6.7 7.6 7.7
6.5 6.5 6.5 6.5 6.5 6.5 6.5 6.5 6.5 6.5 6.5 6.5 6.5 6.5 6.6 6.5 7.1 7.4 7.6 7.4 7.3 7.5 7.6 7.2 7.8 7.7 8.1 8.7 8.7 8.0 7.4 6.2 6.0 6.2 7.3 7.8 5.9 5.8 6.3 6.5 8.3 8.5 8.2 7.4
6.5 6.5 6.5 6.5 6.6 6.5 6.5 6.5 6.5 6.5 6.5 6.5 6.5 6.5 6.9 7.1 7.2 7.0 7.7 7.8 7.7 7.9 7.8 7.8 8.5 8.3 7.9 8.1 7.9 7.5 6.9 6.4 6.4 7.4 7.9 6.8 5.8 7.4 7.7 8.6 8.4 8.0 7.4 7.5
6.5 6.4 6.5 6.5 6.5 6.5 6.5 6.5 6.9 6.6 6.5 6.5 6.8 6.5 6.8 7.0 6.5 6.5 7.7 8.0 8.1 8.3 8.3 8.3 8.7 8.7 8.7 8.5 8.0 7.7 7.7 7.6 7.6 8.3 6.8 5.9 5.4 5.7 7.2 7.7 8.1 8.0 8.1 7.0
6.5 6.5 6.5 6.5 6.5 6.5 6.5 6.7 7.0 6.5 6.5 5.7 7.1 6.7 6.9 6.5 7.0 7.5 8.0 8.0 8.3 8.2 8.2 8.4 8.3 8.0 8.5 8.9 9.0 8.6 8.5 8.0 7.7 6.4 5.8 5.3 6.0 6.1 7.3 7.9 7.8 7.9 7.6 7.3
6.5 6.5 6.5 6.5 6.5 6.5 6.9 6.8 6.5 6.6 6.4 6.4 7.0 7.2 7.1 7.4 7.7 7.8 7.9 8.0 7.8 7.6 6.4 8.5 8.2 8.2 8.6 9.0 8.7 8.6 8.1 8.0 6.3 6.1 6.4 7.0 7.2 6.1 7.4 6.8 6.6 7.1 7.2 6.9
6.5 6.5 6.5 6.5 6.5 6.7 7.1 5.9 7.4 3.4 5.0 7.0 7.4 7.6 7.6 7.6 7.6 7.9 7.8 7.9 8.1 7.2 8.3 7.9 8.1 8.3 8.7 8.9 9.0 8.6 8.4 7.1 6.8 7.6 8.3 8.9 8.8 8.1 6.8 6.3 6.9 7.6 8.5 8.3
6.5 6.6 6.5 6.5 6.5 6.6 7.0 5.8 7.1 7.8 7.6 7.8 7.9 7.9 7.9 7.7 7.9 7.9 8.1 8.2 8.2 8.3 8.4 8.7 8.5 8.5 8.4 8.8 8.5 8.3 8.2 7.8 7.5 7.5 8.3 8.5 8.5 8.3 7.9 8.2 8.7 8.1 8.3 8.2
6.5 6.4 6.5 6.5 6.4 6.5 7.2 7.4 7.4 7.7 7.9 7.9 8.1 8.1 8.0 8.0 8.0 8.1 8.0 8.1 8.3 8.4 8.6 8.6 8.3 8.4 8.4 8.6 8.7 9.1 8.8 8.5 8.0 8.4 8.7 8.7 8.6 6.8 7.9 7.7 8.3 8.6 7.8 7.0
7.0 6.5 6.5 6.5 6.5 6.3 6.7 7.7 8.0 7.7 7.7 8.0 7.9 7.9 8.2 8.2 8.0 8.2 8.1 8.3 8.3 8.4 8.5 8.2 8.5 8.5 8.6 8.5 8.7 8.9 9.3 9.1 8.8 8.7 8.6 8.4 8.6 8.6 8.2 8.4 8.4 0.3 2.6 0.9
Wind_Speed
16 15 18 18 19 26 15 21 23 8 11 3 8 24 23 16 13 12 7 9 21 18 20 15 19 20 24 19 15 10 9 8 5 5 6 4 5 4 6 6 16 24 20 14
18 18 4 18 20 16 23 19 4 11 8 3 18 26 16 12 12 11 14 8 11 17 17 14 9 10 21 13 11 12 10 9 5 6 3 3 1 3 3 3 11 18 11 5
22 25 9 10 9 10 12 9 11 6 8 5 8 16 6 3 9 6 8 8 10 8 6 8 4 6 22 16 13 11 9 11 7 5 2 2 2 3 4 3 3 3 4 6
21 12 25 10 9 10 1 3 11 9 4 8 8 3 6 2 8 13 5 5 8 7 10 4 9 5 7 14 13 13 9 8 7 5 3 3 2 2 4 4 4 2 8 6
20 14 30 13 11 11 2 7 10 12 9 11 14 4 25 3 13 29 10 10 8 9 8 7 9 5 9 10 12 10 8 5 2 4 4 4 3 3 4 1 1 1 2 8
23 10 15 13 12 15 13 8 13 13 10 5 6 14 12 11 20 37 11 10 7 10 9 8 11 6 9 10 12 10 7 3 3 2 3 3 3 5 6 6 5 5 4 5
20 18 19 16 17 13 17 10 11 6 4 2 17 14 12 14 13 15 13 11 11 9 8 7 12 8 8 8 9 11 9 5 4 4 5 3 3 5 5 6 3 6 5 5
16 16 19 10 14 14 15 13 7 4 7 15 21 6 10 14 13 14 13 11 13 9 11 9 11 9 9 13 11 10 10 6 5 4 1 2 7 6 5 6 5 6 4 4
16 17 17 21 15 18 14 14 19 16 24 15 12 21 16 7 11 9 13 12 12 11 12 15 12 13 12 11 11 12 10 8 8 6 4 3 5 5 6 6 4 5 4 5
21 14 16 18 17 18 22 14 14 9 14 11 5 3 3 4 6 10 9 7 11 13 13 13 10 9 9 9 10 10 10 8 6 5 4 3 3 4 3 4 6 6 6 7
20 17 13 17 15 17 17 16 13 14 12 11 3 2 9 15 11 12 13 13 14 14 13 12 12 11 10 10 9 9 8 7 6 7 5 4 5 6 3 5 4 5 5 6
17 13 14 15 16 16 19 17 18 11 17 4 5 5 21 19 21 16 15 16 16 15 14 14 12 11 11 9 9 8 7 7 7 4 1 4 3 2 5 4 5 4 4 5
14 17 12 12 18 17 17 19 19 15 17 6 4 3 8 27 19 15 17 16 16 16 14 13 12 10 10 9 9 8 7 6 6 2 4 5 4 5 5 6 6 6 5 5
12 18 18 15 19 18 24 15 13 18 12 8 4 12 10 21 16 17 18 19 18 14 14 13 12 10 9 8 7 7 6 5 4 3 3 4 5 5 6 5 6 7 7 5
14 18 21 6 20 19 17 14 20 21 12 8 4 6 19 16 14 18 19 17 18 16 16 14 13 11 10 8 7 6 6 4 3 3 3 6 4 5 5 8 7 7 7 7
17 16 16 17 18 20 13 5 19 11 11 8 10 15 13 12 10 14 17 17 17 16 15 15 14 13 11 10 8 7 5 5 3 2 3 3 3 4 6 6 6 7 7 7
18 16 15 16 18 15 18 13 14 10 12 10 12 9 8 12 7 8 18 18 17 16 15 15 14 12 10 10 8 6 6 4 3 2 2 3 4 5 5 4 6 7 6 7
16 16 13 12 14 18 4 22 11 9 11 17 1 12 8 10 8 5 11 19 18 18 16 14 12 12 10 9 8 6 6 4 3 2 1 3 3 4 4 5 7 7 5 6
15 14 11 11 13 5 3 15 11 10 8 14 22 15 9 5 2 7 5 18 18 17 15 14 13 12 10 8 8 5 4 4 2 1 1 3 3 4 5 5 5 6 5 7
19 13 6 5 2 2 4 12 7 13 3 18 26 14 24 22 4 8 6 16 17 17 15 14 14 14 12 9 8 6 5 4 2 1 2 2 3 4 4 5 6 3 5 5
5 4 2 2 4 5 17 17 4 9 7 5 13 12 18 13 8 6 6 8 13 13 15 13 12 12 10 9 8 6 4 2 3 2 2 1 3 4 5 5 4 5 5 5
4 4 6 9 9 8 4 9 6 6 12 5 8 9 12 11 9 6 7 6 10 15 14 14 11 9 10 7 5 4 3 4 3 0 2 2 2 3 5 6 5 5 5 7
3 3 3 12 4 8 3 6 21 15 18 10 11 11 11 11 10 9 9 12 13 15 8 10 8 10 8 5 4 4 4 3 1 2 3 4 3 3 3 4 6 6 3 5
16 11 5 14 4 5 8 1 7 9 9 10 12 13 13 13 13 12 11 10 9 10 8 9 10 9 7 5 4 2 5 3 3 3 4 4 5 5 5 5 6 5 3 4
7 3 4 6 6 13 12 6 8 5 6 11 10 13 14 14 13 13 11 10 9 8 8 7 8 7 8 6 4 4 4 3 4 5 5 6 6 6 5 6 4 2 3 2
11 8 2 4 7 5 7 10 5 4 9 7 11 12 12 12 11 12 9 8 8 7 6 6 5 5 5 6 5 4 3 3 4 6 6 4 2 4 4 1 2 7 7 7
Wind_Direction
219 237 243 84 77 277 151 207 250 136 108 359 296 173 182 175 200 203 200 177 156 177 201 195 210 186 187 181 156 154 139 120 129 158 192 187 183 177 212 201 156 198 224 221
232 230 193 257 172 193 187 226 4 39 43 279 47 322 147 161 198 221 173 225 158 181 194 214 197 192 152 144 151 137 132 131 190 189 239 186 214 186 187 178 185 197 187 200
233 234 156 238 224 238 243 66 277 216 187 77 62 233 144 341 332 219 218 178 152 193 227 159 219 227 126 194 146 135 135 148 187 253 164 125 298 232 181 244 279 213 170 181
243 92 297 203 245 261 248 10 288 282 237 241 135 281 286 302 306 300 210 170 158 190 156 192 167 188 150 144 136 126 141 151 178 237 257 175 140 286 250 74 345 261 186 181
243 202 200 239 242 231 163 211 280 285 253 238 170 108 262 327 17 295 210 161 189 133 136 167 167 156 122 110 120 127 140 160 187 188 240 310 269 267 280 149 121 289 137 260
258 337 260 244 248 266 276 293 280 253 276 3 154 197 171 170 185 223 159 155 156 117 135 142 105 132 100 123 126 134 118 153 171 205 218 246 293 319 329 356 324 302 341 7
252 219 250 223 244 236 243 258 256 8 5 259 275 266 130 92 112 139 144 141 122 117 123 141 120 166 116 114 134 121 127 154 180 207 237 234 283 280 314 298 3 2 7 10
232 239 237 243 248 257 218 251 234 128 267 224 237 263 98 100 106 117 133 141 128 159 126 144 153 141 128 87 71 125 141 165 168 102 124 327 356 360 337 19 12 25 26 30
234 226 248 223 217 248 244 226 251 200 227 260 103 83 48 60 98 115 141 155 156 153 141 98 81 77 70 86 89 95 90 87 83 68 80 54 54 31 24 16 4 34 35 359
253 271 210 201 212 222 249 264 293 230 267 273 113 55 161 288 181 149 134 167 143 150 132 121 138 138 124 110 100 101 105 93 96 116 104 94 43 55 2 8 20 9 5 5
245 264 255 189 197 216 223 243 257 287 292 295 50 192 199 207 210 178 157 154 158 142 128 123 103 107 110 106 108 111 108 109 100 60 43 39 31 3 331 41 6 19 356 350
226 251 249 196 199 230 224 225 231 243 243 233 119 80 355 331 228 160 162 154 143 134 145 135 137 138 135 127 108 95 98 98 73 80 27 79 63 312 38 41 25 17 5 343
207 241 262 209 193 208 237 226 251 274 279 40 4 121 58 288 235 164 154 149 137 147 150 147 146 135 134 119 115 112 95 54 60 22 54 62 19 20 15 30 9 3 351 338
214 238 242 210 208 202 219 233 256 266 267 153 194 164 238 255 164 153 148 151 150 154 154 156 146 143 114 104 101 108 93 101 92 30 59 61 28 13 7 8 17 359 338 327
218 235 251 289 296 304 213 206 227 245 266 319 175 54 169 251 149 148 155 162 154 162 166 161 153 139 136 139 143 129 126 108 72 49 8 64 25 12 4 33 6 343 342 342
217 233 255 250 188 239 275 182 301 218 246 263 291 127 103 94 125 150 156 163 154 167 172 167 156 154 163 160 160 158 137 123 112 62 18 42 25 0 49 14 3 353 344 343
220 225 235 235 246 197 224 244 249 266 266 265 266 112 114 127 120 160 161 162 161 173 174 168 163 164 168 165 165 160 139 132 122 84 26 14 18 358 33 0 354 341 326 351
219 220 234 247 229 247 239 22 323 275 285 337 140 88 55 60 115 165 181 160 163 170 172 165 167 162 160 165 155 114 122 146 150 160 71 36 11 339 10 350 339 340 323 313
262 216 231 254 235 266 172 29 15 347 1 4 345 145 176 122 128 144 241 151 160 165 165 163 165 159 142 142 125 144 155 144 163 199 60 30 338 333 333 331 333 323 12 339
246 89 95 14 118 86 296 347 3 341 282 333 322 126 131 185 142 85 150 148 156 160 163 162 163 152 149 139 153 171 176 178 189 76 48 15 346 310 331 320 312 329 342 318
58 15 22 223 272 212 158 213 202 222 243 168 293 26 65 77 82 53 94 128 145 146 142 143 146 137 144 152 176 185 169 173 84 67 52 4 303 315 284 295 19 349 346 323
36 0 234 238 250 89 118 141 261 117 76 262 85 75 77 83 78 79 94 117 120 106 112 137 122 133 134 160 154 188 172 113 121 227 261 269 285 311 330 337 334 308 284 277
2 171 306 317 102 158 192 91 188 129 274 129 101 98 112 108 96 93 101 92 96 96 134 115 152 128 133 155 186 184 139 127 211 256 268 272 231 258 290 272 277 275 275 311
353 342 36 291 150 129 107 136 343 358 103 106 121 121 114 116 116 114 109 108 115 129 155 152 144 150 149 157 162 227 121 165 221 256 271 269 257 252 219 275 269 221 40 3
211 234 336 309 248 173 203 148 107 80 92 85 106 110 121 123 124 124 123 126 135 147 164 158 142 156 163 156 180 185 160 189 235 239 245 250 251 201 232 232 258 298 145 174
211 148 50 278 25 66 39 87 71 108 108 114 111 117 117 119 123 119 127 133 138 145 148 125 146 142 138 151 184 196 205 197 250 264 243 236 315 296 258 170 280 59 125 145